• In Czech Republic
  • List of Countries
  • For 7 days
  • Water Temperature
  • Satellite Maps
  • Weather Map
  • Weather Widgets
  • user-avatar
    Login

    Hourly Weather Karaganda

    Today, 19 January, Friday

    Time Temperature Precipitation Wind Pressure Humidity
    00:00 -16°C° 0 mm 1 mps 718 mmHg 55%
    01:00 -16°C° 0 mm 1 mps 718 mmHg 54%
    02:00 -16°C° 0 mm 1 mps 717 mmHg 54%
    03:00 -16°C° 0 mm 1 mps 717 mmHg 54%
    04:00 -16°C° 0 mm 1 mps 717 mmHg 54%
    05:00 -17°C° 0 mm 2 mps 717 mmHg 52%
    06:00 -16°C° 0 mm 2 mps 717 mmHg 54%
    07:00 -14°C° 0 mm 1 mps 717 mmHg 55%
    08:00 -14°C° 0 mm 1 mps 717 mmHg 56%
    09:00 -12°C° 0 mm 1 mps 718 mmHg 60%
    10:00 -11°C° 0 mm 1 mps 718 mmHg 65%
    11:00 -10°C° 0 mm 1 mps 718 mmHg 69%
    12:00 -9°C° 0 mm 1 mps 718 mmHg 69%
    13:00 -9°C° 0 mm 1 mps 718 mmHg 70%
    14:00 -9°C° 0 mm 1 mps 718 mmHg 71%
    15:00 -10°C° 0 mm 1 mps 718 mmHg 69%
    16:00 -11°C° 0 mm 1 mps 718 mmHg 67%
    17:00 -13°C° 0 mm 1 mps 718 mmHg 65%
    18:00 -13°C° 0 mm 1 mps 718 mmHg 65%
    19:00 -13°C° 0 mm 1 mps 718 mmHg 65%
    20:00 -13°C° 0 mm 1 mps 718 mmHg 65%
    21:00 -13°C° 0 mm 1 mps 719 mmHg 66%
    22:00 -13°C° 0 mm 1 mps 719 mmHg 66%
    23:00 -13°C° 0 mm 1 mps 719 mmHg 67%

    Tomorrow, 20 January, Saturday

    Time Temperature Precipitation Wind Pressure Humidity
    00:00 -13°C° 0 mm 1 mps 719 mmHg 68%
    01:00 -13°C° 0 mm 1 mps 719 mmHg 69%
    02:00 -13°C° 0 mm 1 mps 719 mmHg 69%
    03:00 -14°C° 0 mm 1 mps 719 mmHg 70%
    04:00 -14°C° 0 mm 1 mps 719 mmHg 71%
    05:00 -14°C° 0 mm 1 mps 719 mmHg 71%
    06:00 -16°C° 0 mm 2 mps 719 mmHg 72%
    07:00 -16°C° 0 mm 2 mps 719 mmHg 73%
    08:00 -16°C° 0 mm 2 mps 719 mmHg 74%
    09:00 -15°C° 0 mm 2 mps 719 mmHg 76%
    10:00 -13°C° 0 mm 2 mps 720 mmHg 78%
    11:00 -12°C° 0 mm 2 mps 720 mmHg 80%
    12:00 -12°C° 0 mm 2 mps 720 mmHg 80%
    13:00 -10°C° 0 mm 2 mps 720 mmHg 81%
    14:00 -9°C° 0 mm 2 mps 719 mmHg 81%
    15:00 -12°C° 0 mm 2 mps 719 mmHg 81%
    16:00 -14°C° 0 mm 3 mps 719 mmHg 80%
    17:00 -15°C° 0 mm 3 mps 719 mmHg 79%
    18:00 -15°C° 0 mm 3 mps 719 mmHg 80%
    19:00 -16°C° 0 mm 3 mps 719 mmHg 80%
    20:00 -16°C° 0 mm 3 mps 719 mmHg 80%
    21:00 -17°C° 0 mm 3 mps 719 mmHg 80%
    22:00 -17°C° 0 mm 3 mps 719 mmHg 80%
    23:00 -17°C° 0 mm 3 mps 719 mmHg 80%

    Day after tomorrow, 21 January, Sunday

    Time Temperature Precipitation Wind Pressure Humidity
    00:00 -17°C° 0 mm 3 mps 719 mmHg 80%
    01:00 -18°C° 0 mm 3 mps 719 mmHg 80%
    02:00 -18°C° 0 mm 3 mps 719 mmHg 80%
    03:00 -18°C° 0 mm 3 mps 719 mmHg 81%
    04:00 -18°C° 0 mm 3 mps 719 mmHg 81%
    05:00 -20°C° 0 mm 4 mps 719 mmHg 82%
    06:00 -20°C° 0 mm 4 mps 719 mmHg 82%
    07:00 -20°C° 0 mm 4 mps 719 mmHg 83%
    08:00 -20°C° 0 mm 4 mps 719 mmHg 83%
    09:00 -21°C° 0 mm 5 mps 719 mmHg 83%
    10:00 -20°C° 0 mm 5 mps 719 mmHg 83%
    11:00 -19°C° 0 mm 5 mps 720 mmHg 83%
    12:00 -18°C° 0 mm 5 mps 720 mmHg 82%
    13:00 -18°C° 0 mm 5 mps 720 mmHg 82%
    14:00 -18°C° 0 mm 5 mps 719 mmHg 81%
    15:00 -20°C° 0 mm 6 mps 720 mmHg 81%
    16:00 -21°C° 0 mm 6 mps 720 mmHg 80%
    17:00 -23°C° 0 mm 6 mps 720 mmHg 79%
    18:00 -24°C° 0 mm 6 mps 720 mmHg 78%
    19:00 -26°C° 0 mm 6 mps 720 mmHg 76%
    20:00 -26°C° 0 mm 6 mps 720 mmHg 74%
    21:00 -27°C° 0 mm 6 mps 721 mmHg 73%
    22:00 -27°C° 0 mm 6 mps 721 mmHg 72%
    23:00 -28°C° 0 mm 6 mps 721 mmHg 71%

    22 January, Monday

    Time Temperature Precipitation Wind Pressure Humidity
    00:00 -28°C° 0 mm 6 mps 721 mmHg 70%
    01:00 -29°C° 0 mm 6 mps 721 mmHg 69%
    02:00 -29°C° 0 mm 6 mps 721 mmHg 68%
    03:00 -29°C° 0 mm 6 mps 721 mmHg 68%
    04:00 -29°C° 0 mm 6 mps 721 mmHg 67%
    05:00 -31°C° 0 mm 7 mps 721 mmHg 67%
    06:00 -31°C° 0 mm 7 mps 721 mmHg 67%
    07:00 -31°C° 0 mm 7 mps 721 mmHg 67%
    08:00 -32°C° 0 mm 7 mps 721 mmHg 66%
    09:00 -31°C° 0 mm 7 mps 721 mmHg 66%
    10:00 -31°C° 0 mm 7 mps 722 mmHg 66%
    11:00 -30°C° 0 mm 7 mps 722 mmHg 66%
    12:00 -30°C° 0 mm 7 mps 722 mmHg 68%
    13:00 -30°C° 0 mm 7 mps 722 mmHg 69%
    14:00 -30°C° 0 mm 7 mps 722 mmHg 71%
    15:00 -31°C° 0 mm 7 mps 722 mmHg 73%
    16:00 -32°C° 0 mm 7 mps 722 mmHg 75%
    17:00 -35°C° 0 mm 7 mps 722 mmHg 77%
    18:00 -36°C° 0 mm 7 mps 723 mmHg 76%
    19:00 -36°C° 0 mm 6 mps 723 mmHg 76%
    20:00 -36°C° 0 mm 6 mps 723 mmHg 75%
    21:00 -37°C° 0 mm 6 mps 724 mmHg 75%
    22:00 -39°C° 0 mm 6 mps 724 mmHg 74%
    23:00 -39°C° 0 mm 6 mps 724 mmHg 73%

    23 January, Tuesday

    Time Temperature Precipitation Wind Pressure Humidity
    00:00 -39°C° 0 mm 6 mps 724 mmHg 73%
    01:00 -40°C° 0 mm 6 mps 724 mmHg 72%
    02:00 -40°C° 0 mm 6 mps 724 mmHg 72%
    03:00 -40°C° 0 mm 6 mps 724 mmHg 72%
    04:00 -40°C° 0 mm 6 mps 724 mmHg 72%
    05:00 -40°C° 0 mm 6 mps 724 mmHg 72%
    06:00 -39°C° 0 mm 6 mps 725 mmHg 71%
    07:00 -39°C° 0 mm 6 mps 725 mmHg 70%
    08:00 -39°C° 0 mm 6 mps 725 mmHg 69%
    09:00 -37°C° 0 mm 6 mps 725 mmHg 69%
    10:00 -35°C° 0 mm 6 mps 725 mmHg 69%
    11:00 -34°C° 0 mm 6 mps 726 mmHg 69%
    12:00 -33°C° 0 mm 6 mps 725 mmHg 70%
    13:00 -33°C° 0 mm 6 mps 725 mmHg 71%
    14:00 -31°C° 0 mm 6 mps 725 mmHg 73%
    15:00 -33°C° 0 mm 6 mps 725 mmHg 74%
    16:00 -34°C° 0 mm 6 mps 726 mmHg 76%
    17:00 -34°C° 0 mm 5 mps 726 mmHg 78%
    18:00 -35°C° 0 mm 5 mps 726 mmHg 77%
    19:00 -37°C° 0 mm 5 mps 726 mmHg 77%
    20:00 -37°C° 0 mm 5 mps 726 mmHg 76%
    21:00 -38°C° 0 mm 5 mps 726 mmHg 76%
    22:00 -38°C° 0 mm 5 mps 726 mmHg 76%
    23:00 -38°C° 0 mm 5 mps 726 mmHg 77%

    24 January, Wednesday

    Time Temperature Precipitation Wind Pressure Humidity
    00:00 -38°C° 0 mm 5 mps 726 mmHg 78%
    01:00 -38°C° 0 mm 5 mps 726 mmHg 80%
    02:00 -38°C° 0 mm 5 mps 726 mmHg 82%
    03:00 -38°C° 0 mm 5 mps 726 mmHg 83%
    04:00 -38°C° 0 mm 5 mps 726 mmHg 85%
    05:00 -38°C° 0 mm 5 mps 726 mmHg 86%
    06:00 -37°C° 0 mm 5 mps 726 mmHg 87%
    07:00 -37°C° 0 mm 5 mps 726 mmHg 88%
    08:00 -37°C° 0 mm 5 mps 726 mmHg 89%
    09:00 -34°C° 0 mm 5 mps 726 mmHg 89%
    10:00 -33°C° 0 mm 5 mps 726 mmHg 90%
    11:00 -31°C° 0 mm 5 mps 726 mmHg 91%
    12:00 -31°C° 0 mm 5 mps 726 mmHg 91%
    13:00 -29°C° 0 mm 5 mps 726 mmHg 91%
    14:00 -29°C° 0 mm 5 mps 726 mmHg 92%
    15:00 -31°C° 0 mm 5 mps 726 mmHg 93%
    16:00 -31°C° 0 mm 4 mps 726 mmHg 94%
    17:00 -33°C° 0 mm 4 mps 726 mmHg 95%
    18:00 -33°C° 0 mm 4 mps 726 mmHg 95%
    19:00 -34°C° 0 mm 4 mps 726 mmHg 95%
    20:00 -35°C° 0 mm 4 mps 726 mmHg 96%
    21:00 -35°C° 0 mm 4 mps 726 mmHg 96%
    22:00 -35°C° 0 mm 4 mps 726 mmHg 96%
    23:00 -37°C° 0 mm 4 mps 726 mmHg 96%
    Show more